Location: Newark
(48.3453°N, 0.5589°E)
Time: 17:53:28
(UTC+00:00)

A-11 Canister half - Pass Details

Date: 11 December 2019
Orbit: 1517 x 1683 km, 47.2° (Epoch: 23 January)

Event Time Altitude Azimuth Distance (km) Brightness Sun altitude
Rises 09:39:59 0° 183° (S) 4,702 12.6 12.9°
Reaches altitude 10° 09:44:13 10° 167° (SSE) 3,750 12.9 13.2°
Maximum altitude 09:50:11 19° 127° (SE) 3,155 12.1 13.7°
Drops below altitude 10° 09:56:16 10° 87° (E) 3,846 11.5 14.2°
Sets 10:00:39 0° 71° (ENE) 4,866 11.7 14.5°
